• Join FlightAware (Why Join?)
  • Login
  • US Flag 
03:27AM EST


 

Airport Tracker/Info


-or-


 

Live Flight TrackerFlight Track Log ✈ EGF3681 ✈ 18-Oct-2013 ✈ KORD - KDAY

Flight Track Log - Related Links

Times and Time Zones

All times are in EDT time to prevent confusion due to time zone crossing. See the EGF3681 flight status page for this flight to view local times or setup timezone preferences in your user account.

Time Position Orientation Groundspeed Altitude Reporting Facility
EDT Latitude Longitude Course Direction KTS MPH feet Rate Location/Type
11:03PM 41.8124 -87.5895 95° East  Level Estimated
11:04PM 41.8451 -87.4671 70° East  Level FlightAware Approximate
11:05PM 41.7864 -87.3638 90° East  Level Estimated
11:05PM 42.1030 -87.5680 90° East 100 115 12,500  Level FlightAware
11:06PM 41.7276 -87.2606 90° East  Level Estimated
11:06PM 42.0870 -87.5200 114° Southeast 314 361 13,200  Level FlightAware
11:07PM 42.0660 -87.4540 113° Southeast 324 373 13,500 234 Climbing FlightAware
11:07PM 42.0480 -87.3970 113° Southeast 324 373 13,500  Level FlightAware
11:08PM 42.0310 -87.3400 112° Southeast 324 373 13,500 2,382 Level FlightAware
11:08PM 41.9960 -87.2230 112° Southeast 324 373 16,200 2,500 Climbing FlightAware
11:09PM 41.9730 -87.1440 111° Southeast 378 435 16,500 234 Climbing FlightAware
11:10PM 41.9530 -87.0750 111° Southeast 378 435 16,500  Level FlightAware
11:10PM 41.9340 -87.0080 111° Southeast 378 435 16,500 3,000 Level FlightAware
11:11PM 41.9340 -86.9040 90° East 441 507 19,400 3,895 Climbing FlightAware
11:11PM 41.8970 -86.8350 126° Southeast 392 451 20,200 1,333 Climbing FlightAware
11:11PM 41.8850 -86.8180 133° Southeast 394 453 20,400 1,200 Climbing FlightAware
11:12PM 41.8700 -86.7880 124° Southeast 407 468 20,700 716 Climbing FlightAware
11:12PM 41.8160 -86.6940 128° Southeast 411 473 21,200 1,412 Climbing FlightAware
11:13PM 41.7750 -86.6170 126° Southeast 401 461 22,700 1,391 Climbing FlightAware
11:14PM 41.7430 -86.5610 127° Southeast 401 461 22,800 83 Climbing FlightAware
11:14PM 41.7080 -86.5010 128° Southeast 401 461 22,800 174 Level FlightAware
11:15PM 41.6510 -86.3930 125° Southeast 440 506 23,000 156 Climbing FlightAware
11:15PM 41.6020 -86.3090 128° Southeast 420 483 23,000  Level FlightAware
11:16PM 41.5650 -86.2470 129° Southeast 420 483 23,000  Level FlightAware
11:17PM 41.5100 -86.1420 125° Southeast 420 483 23,000  Level FlightAware
11:17PM 41.4920 -86.1080 125° Southeast 420 483 23,000  Level FlightAware
11:17PM 41.4450 -86.0270 128° Southeast 478 550 23,000  Level FlightAware
11:18PM 41.4000 -85.9450 126° Southeast 431 496 23,000  Level FlightAware
11:19PM 41.3610 -85.8760 127° Southeast 431 496 23,000  Level FlightAware
11:19PM 41.3240 -85.8110 127° Southeast 431 496 23,000  Level FlightAware
11:20PM 41.2860 -85.7440 127° Southeast 431 496 23,000  Level FlightAware
11:20PM 41.2300 -85.6430 126° Southeast 431 496 23,000  Level FlightAware
11:21PM 41.2050 -85.5980 126° Southeast 431 496 23,000  Level FlightAware
11:21PM 41.1800 -85.5410 120° Southeast 431 496 23,000  Level FlightAware
11:22PM 41.1860 -85.6230 276° West 431 496 23,000  Level FlightAware
11:22PM 41.1930 -85.7040 277° West 431 496 23,000  Level FlightAware
11:23PM 41.1990 -85.7850 276° West 431 496 23,000  Level FlightAware
11:23PM 41.2060 -85.8650 277° West 431 496 23,000  Level FlightAware
11:24PM 41.2120 -85.9440 276° West 431 496 23,000  Level FlightAware
11:25PM 41.2180 -86.0270 276° West 431 496 23,000 -1,791 Level FlightAware
11:25PM 40.8711 -85.0278 276° West 438 504 21,000 -1,333 Descending Indianapolis Center
11:26PM 40.7800 -84.9367 143° Southeast 415 478 21,000 -248 Level Indianapolis Center
11:27PM 40.6872 -84.8603 148° Southeast 397 457 20,500 -738 Descending Indianapolis Center
11:28PM 40.5947 -84.7817 147° Southeast 396 456 19,500 -1,077 Descending Indianapolis Center
11:28PM 40.5564 -84.7503 148° Southeast 389 448 19,100 -984 Descending Indianapolis Center
11:29PM 40.5011 -84.7067 149° Southeast 395 455 18,500 -988 Descending Indianapolis Center
11:30PM 40.4211 -84.6394 147° Southeast 393 452 17,700 -1,100 Descending Indianapolis Center
11:30PM 40.3911 -84.6156 149° Southeast 393 452 17,400 -1,770 Descending Indianapolis Center
11:31PM 40.3342 -84.5681 148° Southeast 362 417 15,900 -2,557 Descending Indianapolis Center
11:31PM 40.3081 -84.5456 147° Southeast 368 423 14,800 -3,556 Descending Indianapolis Center
11:32PM 40.2667 -84.4925 136° Southeast 341 392 12,700 -3,541 Descending Indianapolis Center
11:32PM 40.2406 -84.4608 137° Southeast 344 396 11,200 -2,557 Descending Indianapolis Center
11:33PM 40.1994 -84.4114 137° Southeast 329 379 10,100 -1,672 Descending Indianapolis Center
11:33PM 40.1767 -84.3844 138° Southeast 325 374 9,500 -1,714 Descending Indianapolis Center
11:33PM 40.1603 -84.3658 139° Southeast 279 321 8,900 -2,400 Descending Indianapolis Center
11:34PM 40.1194 -84.3189 139° Southeast 297 342 7,100 -2,262 Descending Indianapolis Center
11:34PM 40.1022 -84.2978 137° Southeast 265 305 6,600 -1,869 Descending Indianapolis Center
11:35PM 40.0656 -84.2550 138° Southeast 278 320 5,200 -1,869 Descending Indianapolis Center
11:35PM 40.0500 -84.2364 138° Southeast 257 296 4,700 -1,574 Descending Indianapolis Center
11:36PM 40.0122 -84.1964 141° Southeast 264 304 3,600 -1,455 Descending Indianapolis Center
11:37PM 39.9872 -84.1731 144° Southeast 237 273 3,100 -1,100 Descending Indianapolis Center
11:37PM 39.9564 -84.1619 165° South 242 278 2,500 -1,091 Descending Indianapolis Center
11:37PM 39.9394 -84.1672 193° South 197 227 2,100 -590 Descending Indianapolis Center
11:38PM 39.9169 -84.2058 233° Southwest 219 252 1,900 -273 Descending Indianapolis Center